Terminal Aerodrome Forecast
Issued by NWS Newport/Morehead City, NC

Home | Current Version | Previous Version | Text Only | Print | Product List | Glossary On
Versions: 1 2 3 4 5 6 7 8 9 10 11 12 13 14 15 16 17 18 19 20
000
FTUS42 KMHX 080702 AAB
TAFEWN
TAF AMD
KEWN 080702Z 0807/0906 VRB03KT 6SM -RA OVC090
     FM081100 02005KT 3SM RA OVC025
     FM081500 02005KT 3SM RA OVC010=

USA.gov is the U.S. government's official web portal to all federal, state and local government web resources and services.